{"data":{"norad_id":40336,"intl_designator":"2014-079A","name":"CBERS 4","alt_names":[],"object_type":"PAYLOAD","status":"ACTIVE","operator":null,"country":"CHBZ","launch_date":"2014-12-07","launch_site_code":"TAISC","launch_vehicle":null,"mission":null,"orbit_class":"UNKNOWN","rcs_meters":3.7804,"size_class":null,"mass_kg":null,"dimensions":null,"purposes":["earth_obs"],"wikipedia_slug":null,"has_3d_model":false,"image_url":null,"decayed_at":null,"tle_current":{"epoch":"2026-05-25T04:11:53.152800Z","epoch_age_seconds":53236,"freshness":"FRESH","line1":"1 40336U 14079A   26145.17492075 -.00000045  00000+0 -11244-5 0  9997","line2":"2 40336  98.3542 202.7268 0002088  91.1380 269.0045 14.35501224600656","mean_motion":14.35501224,"eccentricity":0.0002088,"inclination_deg":98.3542,"raan_deg":202.7268,"arg_perigee_deg":91.138,"mean_anomaly_deg":269.0045,"bstar":-1.1244e-6,"rev_number":60065,"period_min":100.31339409015,"perigee_km":771.90796639902,"apogee_km":774.8944487545,"semimajor_km":7151.5382075768,"source":"CELESTRAK","updated_at":"2026-05-25T13:38:12.787544Z"}}}